Vertical_Velocity
-2 -2 -1 -2 -5 -2 -1 -2 -2 1 1 1 -2 -1 -0 1 -2 -0 0 1 -4 -0 0 1 3 1 1 3 -1 3 2 -1 -1 -2 -4 -1 -1 -1 0 1 -0 0 0 -1 -1
-0 -1 -2 -3 -3 -2 -2 -2 -2 -1 -1 -2 0 -1 -4 -1 -1 -1 1 -2 -4 -1 2 1 5 4 2 -0 1 2 -5 -2 -2 -0 -1 -2 -0 -1 -1 -0 -1 1 1 0 -1
-1 -0 -2 -2 -2 -3 -3 -2 0 -1 -2 -2 -1 1 -0 0 0 -3 -2 -0 -2 -3 2 2 3 4 3 3 -0 -2 -7 -2 0 0 0 -2 -1 -2 -0 -2 3 1 -2 1 0
-1 -5 -4 -2 -2 -2 -2 -1 -2 -1 1 1 -2 -0 -1 -0 -1 -1 -1 -1 -2 -1 -0 2 3 1 4 -3 -0 -0 -3 -1 -2 1 -0 -1 -2 -2 -1 0 -0 -0 -1 1 2
-1 -3 -2 -4 -3 -2 -1 0 0 1 -2 0 0 1 -2 -1 7 -5 -0 0 0 -1 1 1 3 4 4 2 2 2 -0 -1 -2 -0 -1 -1 -1 -3 1 -2 -1 -0 -1 -1 -0
-2 -1 -1 -0 -1 -2 -1 -2 -1 -0 -0 -1 -1 -2 -1 0 -1 -0 1 -1 1 -0 0 -1 2 7 8 3 7 -1 1 0 -1 -1 -0 -1 -3 -2 2 -1 -0 -1 0 -0 -0
1 -0 -1 0 0 -4 -2 -3 -1 0 2 1 -0 -2 -4 4 1 -2 -0 -0 -2 4 1 3 3 4 3 9 5 -0 1 3 -1 -2 -3 -1 -4 -14 -4 -1 -2 -1 -0 0 1
-1 -1 -1 -1 -0 -0 -5 -1 -2 -1 2 3 -2 0 -4 -3 1 -0 -1 -1 0 2 1 4 2 4 2 1 3 4 5 3 -2 -0 -3 3 -12 -1 -5 0 -1 -2 0 1 0
-1 -2 1 -0 -2 -1 1 -6 -3 -3 -1 1 -2 -3 -3 3 -1 1 -1 -4 3 3 3 5 2 2 5 3 7 4 -7 -3 1 -2 -1 1 -5 -4 -2 -2 -1 -2 -0 -0 -2
-1 -1 -0 -1 2 1 0 -2 -7 -6 -4 -1 -0 1 1 0 1 -5 -0 1 0 3 4 1 2 1 2 3 -18 -12 3 2 3 -4 -1 -2 -9 0 -1 -3 -2 -3 -0 -1 -1
4 -1 -2 -4 0 1 1 -2 -5 -2 -3 0 0 1 3 -2 -2 -4 0 2 0 7 1 -1 2 -17 1 12 13 10 4 3 -2 -3 -1 0 -8 3 0 -5 -2 1 -1 -1 1
2 2 1 -1 -6 1 1 3 -0 -2 -5 -2 -4 -3 1 -0 -4 6 2 2 -0 5 4 2 1 2 2 5 4 4 3 2 0 -0 3 -2 -7 2 1 -4 -1 0 -0 -1 -0
1 0 2 1 -1 -5 -1 1 1 -1 2 -1 -2 -1 4 1 -3 3 8 2 4 6 6 -5 1 1 1 2 3 3 1 -1 -1 0 -1 -1 -12 -4 -0 -1 0 -1 -1 -1 -0
-1 1 1 3 4 -5 -4 -1 1 2 2 -1 0 1 -0 -7 2 2 7 2 3 1 6 -2 4 -1 2 2 3 5 1 0 0 2 0 1 -9 -4 -3 0 -1 -2 -1 0 1
0 -0 0 5 2 -0 -3 -3 1 1 3 -1 0 1 7 -8 3 1 3 5 2 -1 2 -4 2 2 2 -1 2 -3 2 1 1 0 3 -1 1 -9 -0 3 0 0 -0 0 1
-1 3 2 3 5 5 0 -2 -2 2 -4 -1 -1 3 3 3 -11 -0 0 4 4 2 4 -0 -2 0 -1 0 1 -0 2 2 2 2 1 -1 1 -6 3 -2 -1 -0 -1 -1 0
-2 2 0 -1 5 2 5 0 -1 -1 -1 4 1 -1 6 -1 0 1 -1 2 -1 1 3 2 -1 -0 1 2 2 1 1 1 1 2 -2 -0 2 -10 -0 -0 1 -1 -1 -0 -0
2 -5 2 1 -0 2 1 7 -0 -0 -3 -1 -1 3 2 2 0 -1 -2 1 2 3 -2 -1 4 -1 -0 -0 0 1 -2 2 -3 -1 0 -0 -5 -8 -0 0 -0 0 -1 -2 -2
4 -1 -3 1 3 3 3 2 -0 1 -2 -5 -2 -3 4 -0 2 -5 -2 -2 1 2 2 -4 0 -0 -0 1 2 -2 -3 0 -1 -0 -1 -1 -2 -6 -5 1 -2 -0 -1 0 -2
-1 2 -1 -1 2 3 1 3 1 -3 -0 -2 -5 -1 -4 2 0 -1 -9 -7 -3 -5 -4 -0 -3 0 2 3 1 1 0 -0 -0 -0 0 -1 -4 -7 -4 0 0 -2 0 0 1
-0 -3 0 2 -0 2 -0 1 1 3 2 1 1 -2 -2 -4 -0 3 3 -4 -2 -3 -1 3 5 0 2 -1 1 -0 -3 -1 -0 -1 -1 0 -5 -1 -2 -1 -3 -2 -0 1 1
3 2 3 -2 2 0 2 1 -2 1 1 5 2 2 -1 -4 -1 -1 4 4 -0 1 1 1 1 -0 -3 -0 -0 -0 -2 2 2 -2 -1 -1 -15 -4 -1 -3 -2 -2 -1 1 1
-2 4 -1 5 -2 3 1 1 3 -2 1 -0 2 3 1 1 -5 -3 -2 -3 1 4 2 2 2 1 3 2 1 -1 -2 -0 1 2 -4 -2 -11 1 -1 1 1 2 1 2 2
4 -1 3 2 3 -2 2 1 -0 1 0 -2 2 -0 5 -1 3 0 -3 -3 -2 -3 -2 0 1 3 2 1 1 -2 -1 1 2 -0 -2 -22 -4 -2 4 2 2 0 1 1 0
1 -0 -4 -1 3 4 3 -3 1 3 -1 4 -2 -1 1 4 2 -1 2 1 -1 1 1 -0 -1 -1 -0 -0 -1 1 1 2 -6 7 -4 -7 -13 19 -0 -1 1 -0 2 2 1
6 7 -2 -2 2 -0 4 -4 -0 2 7 0 -5 3 -1 -1 0 3 5 -1 -0 0 4 1 -4 -1 -2 1 -1 -7 3 1 -3 5 -14 6 -28 17 -2 0 1 3 3 1 0
5 1 5 5 -1 8 -7 4 -3 -1 -0 -3 5 -1 0 7 -1 1 -4 -3 5 5 1 1 -0 -1 -2 -3 -1 -12 -6 -2 6 -1 6 -5 3 -9 1 1 1 1 3 1 -0
Height
3113 3110 3106 3103 3100 3098 3096 3093 3090 3089 3090 3092 3094 3096 3097 3099 3099 3101 3103 3107 3108 3112 3117 3123 3130 3137 3143 3147 3152 3157 3160 3161 3163 3165 3167 3168 3169 3170 3171 3172 3173 3173 3173 3174 3173
3112 3108 3104 3101 3099 3096 3094 3091 3088 3087 3089 3090 3091 3093 3095 3096 3097 3099 3103 3103 3105 3109 3113 3118 3125 3131 3137 3142 3147 3151 3154 3158 3159 3162 3164 3166 3167 3168 3169 3169 3170 3170 3170 3171 3172
3111 3106 3103 3100 3098 3095 3092 3090 3088 3088 3088 3088 3089 3090 3091 3094 3096 3097 3098 3099 3102 3106 3109 3113 3119 3126 3132 3137 3141 3145 3151 3155 3157 3159 3161 3163 3164 3165 3166 3167 3168 3168 3168 3169 3169
3111 3106 3103 3101 3098 3095 3092 3089 3087 3086 3085 3085 3086 3088 3090 3092 3096 3093 3094 3096 3099 3103 3106 3110 3115 3120 3126 3131 3136 3143 3147 3151 3154 3156 3159 3160 3161 3163 3164 3165 3165 3165 3165 3166 3167
3110 3107 3104 3100 3098 3094 3091 3089 3087 3084 3083 3083 3085 3086 3088 3089 3091 3090 3091 3093 3096 3099 3103 3107 3111 3116 3122 3127 3134 3138 3143 3147 3151 3153 3155 3157 3158 3159 3161 3161 3162 3163 3163 3163 3164
3110 3107 3104 3100 3097 3094 3091 3089 3088 3086 3084 3084 3084 3085 3086 3087 3086 3087 3089 3090 3092 3097 3100 3104 3108 3114 3119 3124 3130 3134 3139 3143 3147 3149 3151 3154 3155 3156 3158 3158 3159 3160 3160 3160 3161
3110 3107 3104 3100 3098 3094 3092 3091 3089 3087 3085 3083 3082 3082 3083 3086 3084 3085 3087 3088 3091 3095 3098 3103 3106 3111 3115 3120 3125 3131 3137 3140 3142 3146 3147 3150 3151 3152 3154 3155 3156 3156 3157 3157 3158
3109 3107 3104 3101 3098 3096 3093 3092 3090 3088 3086 3082 3081 3082 3083 3084 3083 3085 3086 3087 3089 3092 3096 3099 3104 3108 3112 3117 3123 3128 3133 3135 3137 3141 3143 3147 3147 3149 3150 3151 3152 3153 3153 3154 3154
3109 3107 3104 3101 3098 3097 3095 3093 3092 3090 3088 3085 3084 3084 3085 3084 3084 3084 3085 3086 3087 3090 3093 3097 3100 3105 3110 3114 3119 3123 3126 3130 3134 3137 3140 3142 3143 3144 3146 3147 3148 3148 3149 3150 3150
3108 3107 3104 3101 3098 3097 3096 3094 3093 3092 3090 3088 3087 3087 3086 3085 3084 3083 3083 3084 3086 3088 3092 3095 3099 3103 3106 3109 3110 3115 3122 3126 3130 3133 3135 3137 3139 3141 3142 3143 3144 3145 3146 3147 3147
3107 3106 3105 3101 3099 3097 3095 3095 3095 3094 3090 3090 3089 3087 3086 3085 3083 3082 3082 3083 3085 3088 3090 3094 3097 3097 3103 3108 3113 3117 3121 3124 3127 3130 3133 3133 3135 3136 3137 3138 3140 3141 3142 3142 3142
3106 3105 3103 3102 3099 3097 3095 3094 3093 3094 3090 3088 3087 3086 3084 3083 3082 3083 3082 3084 3084 3086 3088 3094 3097 3100 3102 3106 3110 3114 3118 3121 3124 3126 3129 3128 3129 3132 3132 3134 3135 3136 3136 3136 3135
3104 3102 3101 3100 3099 3097 3095 3095 3094 3092 3090 3087 3085 3084 3082 3082 3081 3081 3083 3083 3084 3086 3088 3092 3096 3098 3102 3105 3108 3111 3115 3118 3121 3123 3125 3126 3124 3126 3128 3129 3129 3129 3129 3128 3128
3103 3101 3098 3098 3098 3095 3094 3093 3093 3092 3089 3087 3084 3084 3082 3078 3080 3080 3081 3083 3084 3086 3089 3094 3096 3098 3101 3104 3107 3110 3112 3116 3118 3122 3123 3124 3121 3120 3122 3124 3124 3123 3122 3121 3121
3100 3099 3096 3094 3095 3093 3093 3092 3092 3092 3090 3086 3083 3081 3079 3079 3077 3080 3082 3082 3084 3086 3089 3093 3094 3097 3100 3102 3105 3108 3110 3114 3116 3118 3120 3121 3122 3116 3117 3118 3117 3117 3116 3115 3115
3098 3097 3094 3091 3092 3092 3091 3091 3091 3093 3086 3082 3081 3079 3079 3077 3075 3079 3082 3083 3084 3088 3089 3092 3094 3096 3098 3100 3103 3106 3110 3112 3114 3116 3117 3115 3117 3111 3112 3111 3110 3110 3109 3109 3109
3098 3096 3094 3091 3090 3089 3089 3089 3091 3088 3085 3083 3080 3078 3077 3076 3075 3078 3081 3083 3084 3087 3089 3091 3094 3096 3097 3099 3101 3104 3107 3111 3115 3114 3109 3109 3111 3105 3105 3105 3104 3105 3105 3105 3106
3098 3095 3094 3092 3089 3088 3088 3089 3086 3082 3081 3080 3079 3079 3078 3076 3077 3079 3081 3083 3084 3087 3088 3091 3095 3095 3095 3098 3099 3101 3104 3103 3103 3105 3104 3106 3102 3097 3099 3099 3099 3100 3101 3102 3103
3097 3095 3093 3091 3090 3088 3088 3086 3082 3079 3078 3079 3079 3079 3078 3077 3079 3081 3081 3082 3084 3085 3088 3089 3092 3092 3094 3095 3098 3099 3101 3102 3101 3104 3105 3101 3098 3097 3096 3096 3096 3097 3098 3099 3099
3094 3093 3092 3091 3089 3088 3087 3083 3079 3077 3076 3076 3076 3077 3078 3077 3078 3078 3081 3081 3083 3085 3087 3089 3091 3091 3092 3093 3095 3096 3098 3100 3100 3102 3101 3096 3094 3090 3091 3091 3092 3093 3094 3095 3096
3092 3090 3090 3089 3088 3087 3084 3082 3079 3077 3076 3076 3074 3075 3075 3076 3077 3078 3079 3080 3080 3083 3085 3086 3088 3090 3090 3089 3090 3092 3093 3095 3097 3097 3095 3094 3090 3089 3088 3089 3091 3091 3091 3091 3092
3088 3087 3086 3086 3087 3084 3082 3080 3079 3077 3076 3075 3074 3073 3074 3074 3075 3077 3077 3077 3078 3080 3082 3084 3085 3085 3086 3085 3086 3087 3088 3090 3092 3093 3092 3092 3088 3087 3087 3087 3087 3087 3088 3087 3087
3082 3082 3081 3081 3081 3080 3079 3079 3077 3076 3074 3074 3073 3071 3071 3072 3074 3074 3075 3075 3075 3077 3078 3080 3081 3082 3083 3085 3082 3082 3083 3084 3086 3087 3086 3089 3085 3083 3083 3083 3083 3083 3083 3082 3080
3077 3077 3075 3074 3074 3074 3075 3074 3074 3073 3072 3071 3071 3070 3069 3069 3069 3070 3071 3073 3074 3075 3076 3077 3076 3075 3075 3074 3076 3077 3078 3079 3082 3082 3079 3079 3078 3081 3079 3079 3079 3078 3076 3075 3073
3069 3069 3068 3068 3068 3067 3068 3069 3069 3068 3069 3068 3068 3068 3068 3068 3066 3066 3067 3068 3070 3072 3073 3074 3073 3073 3073 3073 3074 3074 3075 3075 3074 3075 3075 3071 3071 3072 3071 3071 3070 3068 3067 3067 3066
3062 3061 3061 3060 3060 3061 3060 3061 3063 3065 3064 3063 3063 3064 3064 3064 3066 3065 3064 3065 3066 3067 3068 3069 3069 3069 3069 3069 3069 3068 3069 3067 3067 3067 3064 3064 3062 3064 3061 3060 3058 3058 3059 3058 3058
3053 3053 3052 3050 3051 3052 3053 3054 3054 3056 3057 3058 3058 3058 3058 3060 3059 3060 3061 3062 3062 3062 3063 3065 3064 3065 3064 3063 3063 3062 3055 3057 3057 3056 3057 3056 3057 3055 3053 3050 3050 3050 3050 3050 3051